Lamar, CO

8:57 AM MDT on September 21, 2017 (GMT -0600)
Lamar Municipal

Weather History for KLAA - May, 2014

Change the Weather History Date:

Saturday, May 10, 2014

  Actual Average Record
Temperature  
Mean Temperature 64 °F 60 °F  
Max Temperature 87 °F 77 °F 97 °F (1962)
Min Temperature 40 °F 44 °F 29 °F (1924)
Degree Days  
Heating Degree Days 1 6  
Month to date heating degree days 50 70  
Since 1 July heating degree days 5374 5470  
Cooling Degree Days 0 1  
Month to date cooling degree days 9 8  
Year to date cooling degree days 24 13  
Growing Degree Days 12 (Base 50)    
Moisture  
Dew Point 27 °F    
Average Humidity 35    
Maximum Humidity 60    
Minimum Humidity 9    
Precipitation  
Precipitation 0.00 in 0.05 in 0.98 in (1968)
Month to date precipitation T  
Year to date precipitation 1.14  
Sea Level Pressure  
Sea Level Pressure 29.61 in    
Wind  
Wind Speed 11 mph (SSE)    
Max Wind Speed 28 mph    
Max Gust Speed 34 mph    
Visibility 9 miles    
Events      
T = Trace of Precipitation, MM = Missing Value Source: NWS Daily Summary

Daily Weather History Graph

Daily Weather History Graph

Search for Another Location

Airport or City:

Trip Planner

Search our weather history database for the weather conditions in past years. The results will help you decide how hot, cold, wet, or windy it might be!

Date:

Astronomy

May. 10, 2014 Rise Set
Actual Time 5:44 AM MDT 7:50 PM MDT
Civil Twilight 5:15 AM MDT 8:19 PM MDT
Nautical Twilight 4:40 AM MDT 8:55 PM MDT
Astronomical Twilight 4:01 AM MDT 9:33 PM MDT
Moon 3:51 PM MDT (5/10) 3:14 AM MDT (5/10)
Length of Visible Light 15h 03m
Length of Day
14h 05m
Waxing Gibbous, 82% of the Moon is Illuminated
May 10
Waxing Gibbous
May 14
Full
May 21
Last Quarter
May 28
New
Jun 5
First Quarter

Hourly Weather History & Observations

Time (MDT) Temp. Windchill Dew Point Humidity Pressure Visibility Wind Dir Wind Speed Gust Speed Precip Events Conditions
12:53 AM 52.0 °F - 28.9 °F 41% 29.71 in 10.0 mi North 4.6 mph - N/A   Clear
1:53 AM 46.0 °F - 27.0 °F 47% 29.71 in 10.0 mi Calm Calm - N/A   Clear
2:53 AM 50.0 °F - 32.0 °F 50% 29.71 in 10.0 mi NNE 3.5 mph - N/A   Clear
3:53 AM 44.1 °F - 28.9 °F 55% 29.73 in 10.0 mi Calm Calm - N/A   Clear
5:53 AM 41.0 °F 35.2 °F 28.9 °F 62% 29.77 in 8.0 mi SSW 9.2 mph - N/A   Clear
6:53 AM 48.0 °F - 33.1 °F 56% 29.77 in 8.0 mi SW 6.9 mph - N/A   Clear
7:53 AM 55.0 °F - 35.1 °F 47% 29.77 in 9.0 mi WNW 8.1 mph - N/A   Clear
8:53 AM 61.0 °F - 36.0 °F 39% 29.74 in 9.0 mi WNW 8.1 mph - N/A   Clear
9:53 AM 66.9 °F - 36.0 °F 32% 29.73 in 9.0 mi Calm Calm - N/A   Clear
10:53 AM 70.0 °F - 33.1 °F 26% 29.70 in 9.0 mi Calm Calm - N/A   Clear
11:53 AM 75.9 °F - 30.9 °F 19% 29.68 in 9.0 mi Variable 6.9 mph - N/A   Clear
12:53 PM 77.0 °F - 28.9 °F 17% 29.65 in 9.0 mi SSE 10.4 mph 23.0 mph N/A   Clear
1:53 PM 81.0 °F - 27.0 °F 14% 29.62 in 9.0 mi South 21.9 mph 28.8 mph N/A   Clear
2:53 PM 80.1 °F - 25.0 °F 13% 29.58 in 9.0 mi SE 17.3 mph 25.3 mph N/A   Clear
3:53 PM 84.0 °F - 23.0 °F 11% 29.52 in 9.0 mi SE 17.3 mph 25.3 mph N/A   Clear
4:53 PM 84.0 °F - 19.9 °F 9% 29.49 in 8.0 mi South 21.9 mph 28.8 mph N/A   Clear
5:53 PM 84.9 °F - 19.9 °F 9% 29.47 in 8.0 mi South 26.5 mph 32.2 mph N/A   Clear
6:53 PM 81.0 °F - 17.1 °F 9% 29.44 in 8.0 mi South 18.4 mph 27.6 mph N/A   Clear
7:53 PM 78.1 °F - 19.9 °F 11% 29.44 in 9.0 mi SSE 11.5 mph - N/A   Clear
9:53 PM 73.0 °F - 21.0 °F 14% 29.43 in 10.0 mi SE 10.4 mph - N/A   Clear
10:53 PM 70.0 °F - 24.1 °F 18% 29.41 in 10.0 mi East 18.4 mph - N/A   Clear
11:53 PM 66.9 °F - 28.9 °F 24% 29.39 in 9.0 mi East 20.7 mph 26.5 mph N/A   Clear